Cloud_Cover
100 100 61 16 33 5 2 0 0 1 100 100 4 0 1 0 3 0 0 39 100 40 0 0 0 0 0 0 0 0 0 2 5 99 100 100 100 96 7 61 64 42 32 69 26 88 99 65 89
100 100 100 6 39 12 13 4 2 46 100 76 5 0 0 3 21 0 0 35 100 100 5 0 0 0 0 0 0 0 0 5 33 76 100 91 95 94 52 98 100 55 100 82 53 82 33 96 100
100 100 97 23 65 90 77 12 91 75 100 100 3 0 0 3 1 0 0 0 24 100 72 5 0 0 0 0 0 0 1 5 40 100 100 100 87 100 93 98 78 100 100 92 94 72 100 100 97
100 100 100 98 100 100 100 100 7 98 46 37 0 0 72 57 0 0 0 0 1 100 100 44 0 0 0 0 0 0 3 5 68 100 100 100 99 100 70 100 100 100 100 100 100 100 100 100 50
100 100 100 100 100 79 99 96 5 4 0 0 0 1 83 16 0 0 0 0 0 2 51 74 2 0 0 0 0 0 1 91 98 100 99 100 100 100 100 100 100 100 100 100 100 100 100 100 100
100 82 81 95 100 100 61 15 3 0 0 0 0 0 22 81 0 0 0 0 0 0 8 18 0 0 0 0 0 0 24 86 100 100 84 100 100 100 99 100 100 100 100 100 100 98 100 100 100
99 19 20 21 9 70 100 24 5 2 0 0 1 0 0 5 0 0 0 0 0 0 98 98 3 0 3 0 0 0 79 95 100 100 100 100 100 100 100 100 100 100 100 100 100 93 60 71 100
5 5 5 5 65 5 5 1 5 5 5 0 0 0 0 0 3 0 0 0 0 0 82 97 100 5 0 0 0 1 76 100 100 100 100 100 100 100 100 100 100 100 100 100 100 100 88 100 68
3 0 5 60 5 3 4 2 0 4 2 0 0 0 0 0 3 0 0 0 7 68 100 81 72 62 21 1 11 4 5 100 100 100 100 100 100 100 100 100 100 100 100 100 100 98 8 47 96
1 2 5 4 1 4 2 0 0 0 0 0 2 0 0 0 0 0 2 0 2 7 100 88 93 90 78 14 31 42 30 77 100 100 100 100 100 100 100 100 100 80 89 44 97 16 26 21 5
0 0 0 0 0 0 0 0 0 0 0 0 0 0 0 0 5 0 0 1 0 0 81 100 98 38 39 10 37 68 73 77 100 100 100 100 100 100 94 73 86 61 63 7 5 17 7 19 4
0 0 0 0 0 0 0 0 0 0 0 3 4 0 1 0 11 22 5 0 0 0 46 100 99 25 27 19 61 100 100 100 100 100 100 100 100 100 100 99 100 100 100 100 98 8 9 89 47
0 0 0 0 0 0 0 0 0 0 0 0 0 0 0 0 44 24 2 1 64 4 0 100 96 50 5 30 66 100 100 100 100 100 100 100 100 100 100 90 40 74 95 100 100 55 5 66 81
0 0 0 0 0 0 0 0 0 0 0 0 0 0 0 0 43 72 0 5 92 17 0 43 100 26 30 31 55 100 100 100 100 100 100 100 100 96 100 94 93 49 14 25 94 54 17 93 100
0 0 0 0 0 0 0 0 0 2 0 0 0 0 0 0 4 97 6 5 2 35 0 0 100 40 6 6 49 82 100 100 100 100 100 100 100 100 100 100 100 45 5 16 33 39 69 73 100
0 0 0 0 0 0 0 0 0 0 0 0 0 0 0 0 0 20 60 5 0 4 4 0 100 93 94 5 10 97 100 100 100 100 100 100 100 100 100 100 100 100 55 8 52 18 96 100 100
0 0 0 0 0 0 0 4 0 0 0 0 0 0 0 0 0 0 47 13 5 0 0 0 49 100 88 72 6 48 100 100 100 100 100 100 100 100 100 100 100 100 79 93 61 79 71 99 100
0 0 0 0 0 0 0 0 0 1 0 0 0 0 0 0 0 0 0 58 5 3 0 0 1 100 100 100 69 34 95 100 100 100 100 100 100 100 100 100 100 100 100 100 100 16 43 100 100
0 0 0 0 0 0 0 0 0 0 0 0 0 0 0 0 0 0 0 0 5 5 4 0 0 54 100 100 100 88 90 100 100 100 100 100 100 100 100 100 100 100 100 100 100 8 73 100 100
0 0 0 0 0 0 1 0 0 0 0 0 0 0 0 0 0 0 0 0 4 5 5 2 0 36 100 100 100 100 70 100 100 100 100 100 100 100 100 100 100 100 100 100 100 100 94 100 98
0 0 0 0 0 0 0 0 0 0 0 0 0 0 0 0 0 0 0 0 0 1 6 3 0 5 100 100 100 100 63 56 100 100 100 100 100 100 100 100 100 100 100 100 99 100 98 89 100
0 0 0 0 0 0 0 17 2 2 6 85 78 0 0 0 0 0 0 0 0 0 18 10 1 2 28 100 100 100 100 100 100 100 100 100 100 100 100 100 100 100 100 100 100 100 100 100 69
0 0 0 0 0 0 0 19 21 12 33 100 100 32 0 0 0 0 0 0 0 90 89 2 0 0 91 18 100 100 81 100 100 100 100 100 100 100 100 100 100 100 100 100 93 100 100 64 65
0 0 0 0 0 0 25 92 100 89 100 82 81 40 4 0 0 0 0 0 0 0 10 65 0 0 62 63 100 100 100 100 100 100 100 43 100 100 100 100 100 99 100 94 90 100 100 81 56
0 0 1 0 0 94 100 95 100 100 100 100 100 73 11 5 5 3 0 0 0 0 0 66 0 0 5 100 100 100 100 100 100 100 100 100 97 100 100 100 100 100 100 100 100 100 100 100 92
82 76 100 90 92 100 100 100 100 100 100 100 100 100 74 5 8 32 55 14 6 0 1 100 82 0 0 20 41 100 100 100 100 100 100 100 100 100 100 100 100 99 90 100 73 100 100 100 100
100 96 100 76 10 100 100 100 100 100 100 100 88 88 48 6 37 57 55 49 58 32 78 91 100 100 0 0 25 31 94 100 100 100 100 100 100 100 100 100 85 100 90 70 49 68 100 100 100
90 100 59 96 97 100 100 100 100 100 100 100 100 100 97 9 53 91 58 52 100 100 98 67 60 98 33 1 27 100 71 100 100 100 100 100 96 52 56 93 100 100 93 54 100 100 100 100 100
100 100 100 99 90 100 100 100 100 100 100 100 100 100 100 53 51 99 76 68 100 100 100 100 84 100 94 30 7 100 100 92 99 100 100 100 100 60 5 33 100 100 100 100 100 100 100 100 100
100 100 100 97 99 100 100 100 100 100 100 100 100 99 100 51 28 72 92 100 100 100 100 100 100 100 100 99 43 21 100 97 11 92 100 100 100 100 100 92 98 84 99 100 100 100 100 100 100